Flag for South Africa Weather past 2 weeks in Cape Town, South Africa

Now
63 °F

Scattered clouds.


Feels Like: 63 °F
Forecast: 52 / 59 °F
Wind: 22 mph from North

Location: Cape Town International Airport

Current Time: Jul 24, 2014 at 1:47:39 PM

Latest Report: Jul 24, 2014 at 1:00 PM


Visibility: N/A

Pressure: 29.89 "Hg

Humidity: 59%

Dew point: 48 °F

Location of Cape TownLocation

Historic Weather in Cape Town — Graph

°F

Cape Town temperature yesterday

Maximum temperature yesterday: 68 °F (at 2:00 PM)
Minimum temperature yesterday: 45 °F (at 4:00 AM)
Average temperature yesterday: 54 °F

Past Weeks' High & Low Weather Summary

 TemperatureHumidityPressure
High73 °F (Jul 15, 1:00 PM)100% (Jul 23, 6:00 AM)30.54 "Hg (Jul 23, 6:00 AM)
Low36 °F (Jul 10, 7:00 AM)22% (Jul 15, 3:00 PM)29.74 "Hg (Jul 17, 8:00 AM)
Average55 °F76%30.16 "Hg
* Reported Jul 9 12:00 Noon — Jul 24 12:00 Noon, Cape Town, Weather by CustomWeather, © 2014

Note: Actual official high and low records may vary slightly from our data, if they occured in-between our weather recording intervals... More about our weather records

Advertising

Cape Town weather history for previous 24 hours

 ConditionsComfort  
Time TempWeatherWind HumidityBarometerVisibility
12:00 PM
Jul 24
61 °FPassing clouds.30 mph63%29.89 "HgN/A
11:00 AM61 °FPassing clouds.23 mph63%29.92 "HgN/A
10:00 AM55 °FPartly sunny.24 mph77%29.92 "HgN/A
9:00 AM54 °FPartly sunny.20 mph82%29.92 "HgN/A
8:00 AM52 °FPartly sunny.20 mph88%29.92 "HgN/A
7:00 AM52 °FPartly sunny.20 mph88%29.92 "HgN/A
6:00 AM52 °FPassing clouds.20 mph88%29.92 "HgN/A
5:00 AM52 °FPassing clouds.15 mph88%29.92 "HgN/A
4:00 AM54 °FPassing clouds.13 mph82%29.95 "HgN/A
3:00 AM54 °FClear.12 mph77%29.95 "Hg10 mi
2:00 AM54 °FClear.9 mph77%29.92 "Hg10 mi
1:00 AM52 °FClear.7 mph77%29.92 "Hg10 mi
12:00 AM50 °FClear.6 mph88%29.95 "Hg10 mi
11:00 PM
Jul 23
50 °FClear.2 mph88%29.95 "Hg10 mi
10:00 PM52 °FClear.3 mph88%29.95 "Hg10 mi
9:00 PM54 °FClear.3 mph82%29.98 "Hg10 mi
8:00 PM55 °FClear.No wind82%29.98 "Hg10 mi
7:00 PM55 °FClear.2 mph82%29.98 "Hg10 mi
6:00 PM59 °FClear.3 mph72%29.98 "Hg10 mi
5:00 PM61 °FClear.5 mph72%29.98 "Hg10 mi
4:00 PM66 °FSunny.7 mph60%30.01 "Hg10 mi
2:00 PM68 °FSunny.2 mph46%30.04 "Hg10 mi
Weather by CustomWeather, © 2014

See weather overviewHow to use our weather pages